Weather History for Joplin, MO

Change the Weather History Date:

Wednesday, January 2, 2013

  Actual Average Record
Temperature  
Mean Temperature 25 °F 35 °F  
Max Temperature 35 °F 44 °F 75 °F (1997)
Min Temperature 14 °F 25 °F -3 °F (2001)
Degree Days  
Heating Degree Days 40 30  
Month to date heating degree days 80 60  
Since 1 July heating degree days 1577 1677  
Cooling Degree Days 0 0  
Month to date cooling degree days 0 0  
Year to date cooling degree days 0 0  
Moisture  
Dew Point 17 °F    
Average Humidity 72    
Maximum Humidity 91    
Minimum Humidity 52    
Precipitation  
Precipitation 0.00 in 0.08 in 1.19 in (1951)
Month to date precipitation T 0.15  
Year to date precipitation T 0.15  
Snow  
Snow 0.00 in - - ()
Month to date snowfall T  
Snow Depth 0.00 in    
Sea Level Pressure  
Sea Level Pressure 30.28 in    
Wind  
Wind Speed 6 mph (SW)    
Max Wind Speed 13 mph    
Max Gust Speed 16 mph    
Visibility 8 miles    
Events      
T = Trace of Precipitation, MM = Missing Value Source: NWS Daily Summary

Daily Weather History Graph

Daily Weather History Graph

Search for Another Location

Airport:

Trip Planner

Search our weather history database for the weather conditions in past years. The results will help you decide how hot, cold, wet, or windy it might be!

Date:

Astronomy

Jan. 02, 2013 Rise Set
Actual Time 7:31 AM CST 5:12 PM CST
Civil Twilight 7:02 AM CST 5:41 PM CST
Nautical Twilight 6:30 AM CST 6:14 PM CST
Astronomical Twilight 5:58 AM CST 6:45 PM CST
Moon 10:37 PM CST (1/2) 10:21 AM CST (1/2)
Length of Visible Light 10h 38m
Length of Day
9h 40m
Waning Gibbous, 75% of the Moon is Illuminated
Jan 2
Waning Gibbous
Jan 4
Last Quarter
Jan 11
New
Jan 18
First Quarter
Jan 26
Full

Hourly Weather History & Observations

Time (CST) Temp. Windchill Dew Point Humidity Pressure Visibility Wind Dir Wind Speed Gust Speed Precip Events Conditions
12:53 AM 15.1 °F - 12.0 °F 88% 30.30 in 6.0 mi Calm Calm - N/A   Clear
1:53 AM 14.0 °F - 10.9 °F 88% 30.32 in 7.0 mi Calm Calm - N/A   Clear
2:53 AM 15.1 °F 9.4 °F 12.0 °F 88% 30.32 in 7.0 mi South 3.5 mph - N/A   Clear
3:53 AM 15.1 °F - 12.9 °F 91% 30.30 in 7.0 mi Calm Calm - N/A   Clear
4:53 AM 15.1 °F - 12.0 °F 88% 30.30 in 7.0 mi Calm Calm - N/A   Clear
5:53 AM 15.1 °F 7.7 °F 12.0 °F 88% 30.30 in 6.0 mi SSE 4.6 mph - N/A   Clear
6:53 AM 15.1 °F 7.7 °F 12.0 °F 88% 30.29 in 7.0 mi SSE 4.6 mph - N/A   Clear
7:53 AM 15.1 °F - 12.9 °F 91% 30.28 in 8.0 mi Calm Calm - N/A   Clear
8:53 AM 19.9 °F 13.4 °F 17.1 °F 89% 30.29 in 8.0 mi South 4.6 mph - N/A   Clear
9:53 AM 23.0 °F 13.1 °F 18.0 °F 81% 30.30 in 8.0 mi SSW 9.2 mph - N/A   Clear
10:53 AM 27.0 °F 17.3 °F 19.0 °F 72% 30.30 in 10.0 mi SSW 10.4 mph - N/A   Clear
11:53 AM 30.0 °F 21.7 °F 19.9 °F 66% 30.27 in 10.0 mi SW 9.2 mph - N/A   Clear
12:53 PM 32.0 °F 25.6 °F 21.0 °F 64% 30.24 in 10.0 mi SW 6.9 mph - N/A   Clear
1:53 PM 34.0 °F 26.0 °F 19.9 °F 56% 30.21 in 10.0 mi SSW 10.4 mph - N/A   Clear
2:53 PM 35.1 °F 26.9 °F 19.9 °F 54% 30.21 in 10.0 mi SW 11.5 mph - N/A   Clear
3:53 PM 35.1 °F 27.9 °F 19.9 °F 54% 30.21 in 10.0 mi SW 9.2 mph - N/A   Clear
4:53 PM 32.0 °F 23.6 °F 21.0 °F 64% 30.23 in 10.0 mi SW 10.4 mph - N/A   Clear
5:53 PM 27.0 °F 20.5 °F 21.0 °F 78% 30.25 in 10.0 mi SSW 5.8 mph - N/A   Clear
6:53 PM 25.0 °F 18.1 °F 19.9 °F 81% 30.26 in 10.0 mi SSW 5.8 mph - N/A   Clear
7:53 PM 25.0 °F 18.1 °F 19.9 °F 81% 30.27 in 10.0 mi South 5.8 mph - N/A   Clear
8:53 PM 28.0 °F 20.8 °F 21.9 °F 78% 30.28 in 9.0 mi SW 6.9 mph - N/A   Clear
9:53 PM 26.1 °F 18.4 °F 21.9 °F 84% 30.30 in 7.0 mi WSW 6.9 mph - N/A   Clear
10:53 PM 24.1 °F 17.0 °F 21.0 °F 88% 30.31 in 7.0 mi West 5.8 mph - N/A   Clear
11:53 PM 23.0 °F 17.0 °F 21.0 °F 92% 30.31 in 8.0 mi WNW 4.6 mph - N/A   Clear